Cloud_Cover
0 0 0 5 43 93 62 100 100 80 7 8 0 0 0 0 0 0 0 0 0 0 0 0 0 0 0 2 3 2 100 100 100 100 100 100 100 98 54 7 18 52 6 6
0 0 0 22 14 60 57 96 100 84 94 83 7 0 0 1 0 0 0 0 0 0 0 0 0 33 4 11 17 17 54 100 100 100 100 75 99 88 68 74 100 100 79 68
0 0 0 63 44 98 70 98 100 100 100 100 54 0 0 5 5 0 0 0 0 0 0 3 1 1 2 12 42 26 12 38 100 100 100 26 72 37 15 34 43 38 45 28
0 0 0 100 95 100 38 98 100 66 88 100 42 1 0 5 5 1 0 0 0 0 0 0 0 0 0 0 0 0 0 0 0 2 32 7 10 5 6 16 27 55 79 40
0 0 22 100 100 100 10 92 100 99 100 100 86 6 5 5 4 5 5 0 0 0 0 0 0 0 0 0 0 0 0 0 0 0 0 4 5 22 5 5 5 5 4 2
0 0 89 100 100 70 10 97 100 90 96 100 76 42 5 5 6 5 5 5 1 0 0 0 0 0 0 0 0 0 0 0 0 0 0 0 0 0 0 0 0 0 0 0
0 0 100 100 100 21 7 100 100 100 100 100 100 90 5 5 51 24 21 5 5 4 0 0 0 0 0 0 0 0 0 0 0 0 0 0 1 0 0 0 0 0 4 2
0 0 100 100 100 0 52 100 100 48 75 100 81 74 99 67 98 99 100 23 5 3 0 0 0 0 0 0 0 0 0 0 0 0 0 0 0 0 2 2 3 0 0 0
0 0 100 100 99 64 51 100 100 87 93 56 68 94 100 99 99 100 63 7 6 6 5 5 5 2 0 0 0 0 0 0 3 1 4 1 0 0 1 5 0 0 0 1
0 7 100 100 81 96 66 95 100 97 77 94 100 100 100 100 95 100 36 37 54 9 46 13 5 5 5 2 0 0 0 3 5 2 5 2 0 4 2 0 0 0 2 5
0 31 100 100 100 69 27 31 100 100 100 100 100 100 68 100 100 100 100 22 98 100 74 46 5 5 5 5 4 3 0 0 4 5 5 0 0 0 0 0 0 0 0 2
30 45 100 100 100 93 57 5 95 100 87 100 100 95 40 72 99 100 100 100 100 100 100 100 17 5 5 5 5 4 4 0 0 5 4 0 0 0 1 0 0 4 3 5
95 98 100 100 77 100 3 5 12 100 100 100 100 99 98 100 100 100 100 100 100 100 78 5 9 5 5 5 5 5 5 5 5 5 5 5 5 5 9 32 5 5 5 5
94 100 100 90 35 98 0 6 5 85 100 100 100 100 100 100 100 100 100 100 100 98 7 80 93 48 5 5 5 5 32 89 93 23 5 5 5 5 5 5 5 5 5 5
100 100 100 0 33 69 0 12 63 27 81 100 100 100 41 56 99 100 100 100 100 100 84 69 10 5 5 5 5 5 77 82 34 5 5 5 5 5 5 5 5 5 4 3
100 100 100 4 28 1 0 9 81 35 5 100 100 100 100 99 100 100 100 100 100 100 36 5 5 5 5 5 4 5 5 20 12 2 5 5 5 5 5 5 3 5 0 5
77 100 66 42 95 42 4 11 85 45 47 66 100 100 98 100 100 100 100 100 100 100 62 5 6 65 5 12 5 5 5 18 5 5 5 5 3 2 0 1 1 3 5 5
32 100 100 95 100 100 78 46 100 99 99 96 85 96 96 100 100 100 100 100 100 100 95 13 63 60 5 5 5 5 12 5 16 90 12 6 26 5 2 5 5 5 5 5
100 100 100 98 100 100 25 8 100 94 20 32 10 96 100 100 100 98 100 100 100 100 100 100 98 26 21 5 5 44 57 5 9 44 91 99 96 30 5 5 5 5 5 5
100 100 99 100 100 52 8 5 15 38 7 7 86 68 96 100 100 100 82 100 100 100 100 100 81 5 5 5 42 31 5 68 100 69 49 6 5 5 5 5 5 5 5 5
100 100 100 100 100 80 86 81 8 54 5 1 5 27 43 10 89 98 100 100 93 68 100 100 80 29 6 5 16 7 10 5 5 5 5 5 5 5 5 5 5 5 5 23
84 100 100 93 96 93 40 79 50 4 2 1 7 68 18 58 67 98 95 99 79 87 99 53 60 52 19 8 38 89 70 36 54 65 58 7 5 5 5 8 60 93 77 10
100 97 95 97 56 27 17 55 50 25 3 5 12 47 100 100 100 100 94 42 81 60 81 65 60 36 98 100 100 100 100 100 100 100 100 100 100 71 38 77 98 97 85 40
100 90 94 6 75 20 5 4 1 0 3 3 5 50 44 97 100 51 5 6 5 64 98 95 91 100 100 92 93 100 100 100 100 100 100 100 100 100 100 100 100 99 42 83
100 89 28 11 2 0 0 0 0 2 1 5 75 35 5 5 5 18 15 72 33 87 40 18 13 68 55 43 100 100 100 100 100 100 100 100 100 100 100 100 100 100 63 5
100 100 25 9 5 46 5 0 5 5 5 20 97 62 5 5 4 5 8 5 5 0 2 36 62 60 87 92 98 100 94 99 100 100 100 100 100 100 100 100 100 100 96 57
100 100 100 49 11 13 5 1 5 46 7 95 31 36 0 5 5 5 8 4 0 10 39 93 85 95 91 100 53 93 0 2 6 19 41 75 95 100 100 100 100 64 22 13